[Date Prev][Date Next][Thread Prev][Thread Next] - [Date Index][Thread Index][Author Index]

2 Line ISS Keps 4-20



ISS
1 25544U 98067A   05110.32529294  .00020004  00000-0  15811-3 0  2823
2 25544 051.6459 197.1193 0007325 033.8197 010.8560 15.71340676366589
----
Via the sarex mailing list at AMSAT.ORG courtesy of AMSAT-NA.
To unsubscribe, send "unsubscribe sarex" to Majordomo@amsat.org



AMSAT Top AMSAT Home